24h Messdaten per 27.03.2019 um 01:24:00

Datum Zeit Luftdruck Temp Balkon Feuchte Balkon Temp Strasse Feuchte Strasse Wind km/h Wind Boe Wind aus (Grad) Regen l/15min Licht Lux Sonne h/Monat
27.03.19 01:24:00 1022 4.4 48 7.3 66 0.0
27.03.19 01:19:00 1022 4.5 47 0.0
27.03.19 01:14:00 1022 4.6 47 7.4 65 0.0
27.03.19 01:09:00 1022 4.6 47 7.5 65 0.0
27.03.19 01:04:00 1022 4.8 46 7.5 64 0.0
27.03.19 00:59:00 1022 5.0 45 0.0
27.03.19 00:54:00 1022 5.0 45 7.6 63 0.0
27.03.19 00:49:00 1022 5.0 45 7.6 63 0.0
27.03.19 00:44:00 1022 5.0 44 7.6 63 0.0
27.03.19 00:39:00 1022 5.1 44 7.7 62 0.0
27.03.19 00:34:00 1022 5.2 43 7.7 62 0.0
27.03.19 00:29:00 7.7 62 1.4 1.8 112.5 0.0
27.03.19 00:24:00 1022 5.3 43 7.8 61 1.4 1.8 112.5 0.0
27.03.19 00:19:00 1022 5.5 42 7.8 61 0.7 1.8 45 0.0
27.03.19 00:14:00 1022 5.5 41 7.9 61 0.0 0.0 90 0.0
27.03.19 00:09:01 1022 5.5 41 7.9 60 0.0 0.0 90 0.0
27.03.19 00:04:01 1022 5.6 42 7.9 60 0.0 0.0 337.5 0.0
26.03.19 23:59:01 1022 5.4 42 7.9 60 0.0 0.0 112.5 0.0
26.03.19 23:54:00 1022 5.4 42 7.8 60 0.0 0.0 112.5 0.0
26.03.19 23:49:00 1022 5.5 41 7.8 59 0.4 1.4 90 0.0
26.03.19 23:44:00 1022 5.6 41 7.8 59 0.7 2.5 112.5 0.0
26.03.19 23:39:00 1022 5.5 41 7.9 59 0.7 2.5 112.5 0.0
26.03.19 23:34:00 1022 5.5 41 7.9 59 0.4 0.0 90 0.0
26.03.19 23:29:00 1022 5.5 41 7.9 58 0.0 0.0 135 0.0
26.03.19 23:24:00 1022 5.6 40 7.9 58 0.0 0.0 135 0.0
26.03.19 23:19:00 1022 5.6 41 7.9 58 0.0 0.0 112.5 0.0
26.03.19 23:14:00 1022 5.6 40 8.0 58 0.7 0.0 112.5 0.0
26.03.19 23:09:00 1022 5.3 41 8.0 58 0.7 0.0 112.5 0.0
26.03.19 23:04:00 1022 5.5 41 8.0 58 0.4 1.4 45 0.0
26.03.19 22:59:00 1022 5.4 41 8.0 57 1.4 1.4 112.5 0.0
26.03.19 22:54:00 1022 5.6 40 8.1 57 1.4 1.4 112.5 0.0
26.03.19 22:49:00 1022 5.6 40 8.1 57 1.8 0.0 90 0.0
26.03.19 22:44:00 1022 5.5 40 8.1 56 1.4 2.9 112.5 0.0
26.03.19 22:39:00 1022 5.6 40 8.1 55 1.4 2.9 112.5 0.0
26.03.19 22:34:00 1022 5.7 39 8.2 55 1.1 2.9 112.5 0.0
26.03.19 22:29:00 1022 5.8 39 8.3 54 1.1 2.9 67.5 0.0
26.03.19 22:24:00 1022 5.8 38 8.3 54 1.1 2.9 67.5 0.0
26.03.19 22:19:00 1022 5.7 39 8.2 54 0.7 2.2 135 0.0
26.03.19 22:14:00 1022 5.9 39 8.3 52 0.0 0.0 135 0.0
26.03.19 22:09:00 1022 6.2 36 8.3 52 0.0 0.0 135 0.0
26.03.19 22:04:00 1022 6.3 36 8.3 52 0.4 0.0 112.5 0.0
26.03.19 21:59:00 1022 6.3 36 8.3 52 0.0 2.9 67.5 0.0
26.03.19 21:54:00 1022 6.3 36 8.3 52 0.0 2.9 67.5 0.0
26.03.19 21:49:00 1022 6.4 36 8.3 52 0.0 0.0 112.5 0.0
26.03.19 21:44:00 1022 6.2 37 8.3 53 1.1 0.0 67.5 0.0
26.03.19 21:39:01 1022 5.9 39 1.1 0.0 67.5 0.0
26.03.19 21:34:01 6.1 38 8.4 53 1.1 1.8 67.5 0.0
26.03.19 21:29:01 1022 5.9 38 8.4 53 1.1 0.0 22.5 0.0
26.03.19 21:24:00 1022 6.0 38 8.5 53 1.1 0.0 22.5 0.0
26.03.19 21:19:00 1022 6.3 36 1.1 0.0 67.5 0.0
26.03.19 21:14:00 1022 6.3 37 8.5 53 2.9 4.0 90 0.0
26.03.19 21:09:00 1022 6.2 37 8.4 53 2.9 4.0 90 0.0
26.03.19 21:04:00 1022 6.3 37 8.4 53 2.5 1.8 67.5 0.0
26.03.19 20:59:00 1022 6.1 38 8.3 54 2.9 4.0 90 0.0
26.03.19 20:54:01 1022 6.0 38 8.3 54 2.9 4.0 90 0.0
26.03.19 20:49:01 1022 6.0 38 8.4 54 2.5 4.3 90 0.0
26.03.19 20:44:01 1022 6.0 38 8.4 53 0.7 2.2 67.5 0.0
26.03.19 20:39:01 1022 6.0 38 8.4 53 0.7 2.2 67.5 0.0
26.03.19 20:34:01 1021 6.0 38 8.4 53 0.7 0.0 337.5 0.0
26.03.19 20:29:00 1022 6.1 37 8.4 53 2.2 1.8 112.5 0.0
26.03.19 20:24:01 1022 6.1 37 8.4 53 2.2 1.8 112.5 0.0
26.03.19 20:19:01 1022 6.1 37 8.4 52 2.2 3.6 112.5 0.0
26.03.19 20:14:01 1022 6.1 37 8.5 52 1.4 2.5 90 0.0
26.03.19 20:09:00 1021 6.0 37 8.4 52 1.4 2.5 90 0.0
26.03.19 20:04:00 1021 6.0 37 8.4 52 1.8 3.6 112.5 0.0
26.03.19 19:59:00 1021 6.1 37 8.4 52 1.4 3.2 135 0.0
26.03.19 19:54:01 1021 6.1 37 8.5 52 1.4 3.2 135 0.0
26.03.19 19:49:01 1021 6.1 37 1.4 3.6 135 0.0
26.03.19 19:44:01 1021 6.3 37 8.5 52 0.7 2.5 67.5 0.0
26.03.19 19:39:01 1021 6.0 37 8.4 52 0.7 2.5 67.5 0.0
26.03.19 19:34:01 1021 6.1 37 8.5 52 0.7 0.0 90 0.0
26.03.19 19:29:01 1021 6.2 37 8.5 52 0.7 1.4 67.5 0.0
26.03.19 19:24:00 1021 8.5 51 0.7 1.4 67.5 0.0
26.03.19 19:19:00 1021 6.2 36 8.5 51 0.0 0.0 67.5 0.0
26.03.19 19:14:00 1021 6.3 36 8.5 51 0.0 0.0 67.5 0.0
26.03.19 19:09:00 1021 6.0 37 8.5 51 0.0 0.0 67.5 0.0
26.03.19 19:04:00 1021 6.1 36 8.5 51 0.7 0.0 67.5 0.0
26.03.19 18:59:00 1021 6.2 36 0.4 2.5 337.5 0.0
26.03.19 18:54:01 1021 6.2 36 8.6 51 0.4 2.5 337.5 0.0
26.03.19 18:49:01 1021 6.4 35 8.6 50 0.7 0.0 45 0.0
26.03.19 18:44:01 1021 6.3 35 8.6 50 0.0 0.0 67.5 0.0
26.03.19 18:39:00 1021 6.4 35 8.7 50 0.0 0.0 67.5 0.0
26.03.19 18:34:00 1021 6.5 34 8.7 49 0.0 0.0 292.5 0.0
26.03.19 18:29:00 1021 6.5 34 8.7 49 1.4 0.0 45 0.0
26.03.19 18:24:01 1021 6.5 34 8.8 49 1.4 0.0 45 0.0
26.03.19 18:19:01 1021 6.7 34 8.8 51 1.4 2.2 90 0.0
26.03.19 18:14:01 1021 6.7 35 8.9 51 0.0 0.0 112.5 0.0
26.03.19 18:09:01 1021 6.7 34 8.8 50 0.0 0.0 112.5 0.0
26.03.19 18:04:01 1021 6.8 34 8.8 50 0.0 0.0 112.5 0.0
26.03.19 17:59:01 1021 6.8 34 8.8 51 1.1 0.0 22.5 0.0
26.03.19 17:54:01 1021 8.8 51 1.1 0.0 22.5 0.0
26.03.19 17:49:01 1021 7.1 34 8.8 51 1.4 4.0 67.5 0.0
26.03.19 17:44:01 7.1 34 8.8 52 0.0 0.0 135 0.0
26.03.19 17:39:01 1021 7.0 34 8.8 51 0.0 0.0 135 0.0
26.03.19 17:34:01 1021 7.0 34 0.4 0.0 112.5 0.0
26.03.19 17:29:01 1021 7.0 34 8.8 51 1.4 0.0 67.5 0.0
26.03.19 17:24:01 1021 7.1 34 8.8 51 1.4 0.0 67.5 0.0
26.03.19 17:19:01 1021 7.0 34 8.8 51 1.1 1.8 135 0.0
26.03.19 17:14:01 1021 7.1 34 8.8 51 1.8 2.2 90 0.0
26.03.19 17:09:02 1021 7.2 33 8.8 50 1.8 2.2 90 0.0
26.03.19 17:04:02 1021 7.2 32 8.9 50 1.8 0.0 315 0.0
26.03.19 16:59:01 1021 7.3 32 8.9 50 1.4 4.3 45 0.0
26.03.19 16:54:01 1021 7.5 32 9.0 49 1.4 4.3 45 0.0
26.03.19 16:49:01 1021 7.6 31 9.0 49 0.7 2.5 90 0.0
26.03.19 16:44:01 1021 7.6 30 9.0 49 1.4 0.0 67.5 0.0
26.03.19 16:39:01 1021 7.8 29 9.1 49 1.4 0.0 67.5 0.0
26.03.19 16:34:01 1021 7.8 29 9.0 48 0.7 2.9 22.5 0.0
26.03.19 16:29:01 1021 7.7 29 9.0 48 1.4 2.2 157.5 0.0
26.03.19 16:24:01 1021 7.7 30 8.9 48 1.4 2.2 157.5 0.0
26.03.19 16:19:01 1021 8.0 29 9.1 49 1.1 1.4 22.5 0.0
26.03.19 16:14:01 1021 7.8 29 9.0 49 1.8 1.8 22.5 0.0
26.03.19 16:09:02 1021 7.8 29 9.0 48 1.8 1.8 22.5 0.0
26.03.19 16:04:02 1021 7.9 29 9.0 48 2.2 1.8 337.5 0.0
26.03.19 15:59:01 1021 7.9 29 9.0 49 1.8 1.8 135 0.0
26.03.19 15:54:00 1021 8.1 29 9.0 48 1.8 1.8 135 0.0
26.03.19 15:49:00 1021 7.7 29 9.0 48 2.2 1.4 67.5 0.0
26.03.19 15:44:00 1021 8.2 28 8.9 49 2.5 4.0 337.5 0.0
26.03.19 15:39:00 1021 8.2 28 9.0 49 2.5 4.0 337.5 0.0
26.03.19 15:34:00 1021 8.1 30 9.0 51 2.2 4.3 67.5 0.0
26.03.19 15:29:00 1021 7.8 30 8.8 50 2.5 2.5 22.5 0.0
26.03.19 15:24:00 1021 7.8 30 8.8 49 2.5 2.5 22.5 0.0
26.03.19 15:19:00 1021 8.0 28 9.0 50 2.5 2.9 45 0.0
26.03.19 15:14:00 1021 8.9 49 2.5 2.2 67.5 0.0
26.03.19 15:09:00 1021 7.9 27 9.2 49 2.5 2.2 67.5 0.0
26.03.19 15:04:00 1021 7.8 30 9.1 48 2.2 3.6 112.5 0.0
26.03.19 14:59:00 1021 7.5 27 9.1 47 2.2 1.4 202.5 0.0
26.03.19 14:54:00 1021 8.6 24 9.1 48 2.2 1.4 202.5 0.0
26.03.19 14:49:00 1021 8.6 23 9.1 48 1.8 2.9 67.5 0.0
26.03.19 14:44:00 1021 8.6 22 9.0 48 2.2 1.8 315 0.0
26.03.19 14:39:02 1021 8.4 23 9.0 49 2.2 1.8 315 0.0
26.03.19 14:34:01 1021 8.8 26 9.0 49 2.2 4.0 22.5 0.0
26.03.19 14:29:01 1021 8.8 49 3.2 2.9 67.5 0.0
26.03.19 14:24:01 1021 8.1 26 8.8 49 3.2 2.9 67.5 0.0
26.03.19 14:19:01 1021 7.9 24 8.8 48 2.5 5.0 67.5 0.0
26.03.19 14:14:01 1021 7.8 29 8.8 49 2.5 2.5 0 0.0
26.03.19 14:09:01 1021 7.5 29 8.9 47 2.5 2.5 0 0.0
26.03.19 14:04:01 1021 7.7 28 9.0 47 3.2 2.9 112.5 0.0
26.03.19 13:59:01 1021 8.0 22 9.0 46 2.9 5.0 90 0.0
26.03.19 13:54:01 1021 8.1 20 9.0 44 2.9 5.0 90 0.0
26.03.19 13:49:01 1021 8.8 20 9.3 44 3.6 6.8 45 0.0
26.03.19 13:44:01 1021 8.8 20 9.3 44 2.9 4.7 45 0.0
26.03.19 13:39:01 1021 10.1 20 9.3 43 2.9 4.7 45 0.0
26.03.19 13:34:01 1022 12.3 20 9.2 43 2.5 3.6 112.5 0.0
26.03.19 13:29:01 1022 10.5 20 9.2 44 2.2 0.0 90 0.0
26.03.19 13:24:01 1022 9.1 20 9.2 44 2.2 0.0 90 0.0
26.03.19 13:19:01 1022 8.7 20 9.0 44 2.5 2.2 22.5 0.0
26.03.19 13:14:01 1022 8.7 20 8.9 44 2.2 3.2 0 0.0
26.03.19 13:09:01 1022 8.5 20 8.8 43 2.2 3.2 0 0.0
26.03.19 13:04:01 1022 8.8 20 8.9 44 2.2 3.2 67.5 0.0
26.03.19 12:59:01 1022 8.3 20 8.8 45 3.6 4.0 67.5 0.0
26.03.19 12:54:01 1022 8.2 20 8.6 47 3.6 4.0 67.5 0.0
26.03.19 12:49:01 1022 9.1 20 8.6 48 3.6 3.6 112.5 0.0
26.03.19 12:44:01 1022 8.5 20 8.6 49 3.2 5.4 112.5 0.0
26.03.19 12:39:02 1022 8.5 20 8.3 48 3.2 5.4 112.5 0.0
26.03.19 12:34:02 1022 7.2 22 8.3 49 2.9 4.7 135 0.0
26.03.19 12:29:01 1022 7.2 25 8.2 49 3.2 2.9 157.5 0.0
26.03.19 12:24:01 1022 7.2 26 8.2 49 3.2 2.9 157.5 0.0
26.03.19 12:19:01 1022 7.2 25 8.2 49 2.5 3.6 0 0.0
26.03.19 12:14:01 1022 7.2 24 8.1 49 2.9 4.3 90 0.0
26.03.19 12:09:01 1022 7.5 24 8.0 48 2.9 4.3 90 0.0
26.03.19 12:04:01 1022 7.5 20 8.0 48 3.2 4.7 0 0.0
26.03.19 11:59:01 1022 7.7 20 8.1 47 2.9 5.4 135 0.0
26.03.19 11:54:00 1022 8.1 48 2.9 5.4 135 0.0
26.03.19 11:49:00 1022 8.0 48 2.2 3.2 90 0.0
26.03.19 11:44:00 1022 8.0 50 2.9 1.8 112.5 0.0
26.03.19 11:39:02 1022 8.0 22 7.9 50 2.9 1.8 112.5 0.0
26.03.19 11:34:02 1022 8.3 22 7.9 53 2.9 2.9 315 0.0
26.03.19 11:29:01 1022 7.7 30 7.7 55 2.5 4.7 90 0.0
26.03.19 11:24:01 1022 7.1 34 7.5 56 2.5 4.7 90 0.0
26.03.19 11:19:01 1022 6.7 34 7.5 56 2.5 4.3 67.5 0.0
26.03.19 11:14:01 1022 6.3 35 7.4 55 2.9 4.0 135 0.0
26.03.19 11:09:02 1022 6.4 34 7.3 55 2.9 4.0 135 0.0
26.03.19 11:04:01 1022 6.7 34 7.4 54 2.9 2.5 337.5 0.0
26.03.19 10:59:01 1022 6.4 34 7.5 53 2.2 2.5 112.5 0.0
26.03.19 10:54:01 1022 6.4 30 7.5 51 2.2 2.5 112.5 0.0
26.03.19 10:49:01 1022 6.6 29 7.7 50 1.8 3.2 67.5 0.0
26.03.19 10:44:01 1022 6.9 28 7.7 50 2.9 4.0 22.5 0.0
26.03.19 10:39:01 1022 7.0 20 7.8 47 2.9 4.0 22.5 0.0
26.03.19 10:34:01 1022 7.5 20 7.6 45 2.2 5.8 45 0.0
26.03.19 10:29:01 1022 8.2 20 7.8 45 0.7 1.4 157.5 0.0
26.03.19 10:24:01 1022 8.5 20 7.8 45 0.7 1.4 157.5 0.0
26.03.19 10:19:01 1022 8.4 20 7.7 45 1.1 2.5 90 0.0
26.03.19 10:14:01 1022 8.7 20 7.7 45 1.4 2.5 67.5 0.0
26.03.19 10:09:01 1022 11.0 20 1.4 2.5 67.5 0.0
26.03.19 10:04:01 1022 10.1 20 7.6 49 1.8 0.0 22.5 0.0
26.03.19 09:59:01 1022 11.2 20 7.4 52 1.4 2.2 45 0.0
26.03.19 09:54:01 1022 13.7 20 7.1 56 1.4 2.2 45 0.0
26.03.19 09:49:01 1022 10.7 20 7.0 58 2.2 3.6 22.5 0.0
26.03.19 09:44:01 1022 7.7 33 6.8 59 2.5 2.9 225 0.0
26.03.19 09:39:02 1022 5.3 36 6.7 60 2.5 2.9 225 0.0
26.03.19 09:34:02 1022 5.6 37 6.7 59 2.2 3.6 67.5 0.0
26.03.19 09:29:02 1022 5.3 37 6.7 60 1.4 0.0 337.5 0.0
26.03.19 09:24:01 1022 5.4 37 6.6 60 1.4 0.0 337.5 0.0
26.03.19 09:19:01 1022 5.3 37 6.6 60 2.2 2.5 22.5 0.0
26.03.19 09:14:01 1022 5.5 36 6.6 61 1.4 2.2 135 0.0
26.03.19 09:09:01 1022 5.7 36 6.5 63 1.4 2.2 135 0.0
26.03.19 09:04:01 1022 5.4 39 6.5 64 1.8 2.5 67.5 0.0
26.03.19 08:59:01 1022 5.1 39 6.4 66 1.8 2.2 112.5 0.0
26.03.19 08:54:01 1022 5.0 40 6.3 67 1.8 2.2 112.5 0.0
26.03.19 08:49:01 1022 5.1 40 6.4 70 2.2 4.3 67.5 0.0
26.03.19 08:44:01 1022 5.3 41 6.3 73 1.8 1.4 90 0.0
26.03.19 08:39:01 1022 5.3 43 1.8 1.4 90 0.0
26.03.19 08:34:01 1022 5.1 43 6.3 75 2.2 4.7 112.5 0.0
26.03.19 08:29:01 1022 5.1 45 6.3 76 2.5 5.8 0 0.0
26.03.19 08:24:02 1022 5.1 45 6.3 76 2.5 5.8 0 0.0
26.03.19 08:19:02 1022 4.9 45 6.3 76 2.5 3.2 337.5 0.0
26.03.19 08:14:02 1022 4.9 45 6.2 78 1.8 1.8 67.5 0.0
26.03.19 08:09:02 1022 4.8 46 6.2 80 1.8 1.8 67.5 0.0
26.03.19 08:04:02 1022 5.0 47 6.2 81 2.2 2.9 180 0.0
26.03.19 07:59:02 1022 5.0 48 6.2 81 1.8 4.7 90 0.0
26.03.19 07:54:01 1021 4.9 48 6.2 81 1.8 4.7 90 0.0
26.03.19 07:49:01 1021 4.7 50 6.2 81 0.7 2.9 22.5 0.0
26.03.19 07:44:01 1021 4.6 50 6.2 80 0.7 0.0 315 0.0
26.03.19 07:39:01 1021 4.4 51 6.2 80 0.7 0.0 315 0.0
26.03.19 07:34:01 4.3 51 6.1 80 1.1 0.0 180 0.0
26.03.19 07:29:01 1021 4.1 52 6.1 79 1.4 3.6 67.5 0.0
26.03.19 07:24:01 1021 4.0 53 6.1 79 1.4 3.6 67.5 0.0
26.03.19 07:19:01 1021 3.9 55 6.1 78 2.2 3.6 22.5 0.0
26.03.19 07:14:01 1021 3.6 56 6.1 78 1.8 2.5 337.5 0.0
26.03.19 07:09:02 1021 3.3 57 6.1 77 1.8 2.5 337.5 0.0
26.03.19 07:04:02 1021 3.4 57 6.1 76 1.4 3.6 0 0.0
26.03.19 06:59:02 1021 3.3 56 6.2 75 0.7 2.2 67.5 0.0
26.03.19 06:54:02 1021 3.2 55 6.2 74 0.7 2.2 67.5 0.0
26.03.19 06:49:02 1021 3.3 54 6.2 74 0.4 0.0 315 0.0
26.03.19 06:44:02 1021 3.3 51 6.2 73 0.7 3.2 112.5 0.0
26.03.19 06:39:01 1021 6.1 71 0.7 3.2 112.5 0.0
26.03.19 06:34:01 1021 3.9 48 6.1 71 0.7 0.0 90 0.0
26.03.19 06:29:01 1021 3.9 48 6.1 71 1.1 0.0 90 0.0
26.03.19 06:24:01 1021 3.9 48 6.2 71 1.1 0.0 90 0.0
26.03.19 06:19:01 1021 3.9 47 6.2 71 1.1 4.0 112.5 0.0
26.03.19 06:14:01 1021 3.8 47 6.1 70 1.4 0.0 247.5 0.0
26.03.19 06:09:02 1021 3.8 47 6.1 70 1.4 0.0 247.5 0.0
26.03.19 06:04:02 1021 6.2 70 0.7 2.2 45 0.0
26.03.19 05:59:01 1021 3.9 47 6.2 69 0.0 0.0 67.5 0.0
26.03.19 05:54:01 1021 3.8 47 6.2 69 0.0 0.0 67.5 0.0
26.03.19 05:49:01 1021 3.9 46 6.2 68 0.0 0.0 67.5 0.0
26.03.19 05:44:01 1021 4.0 46 6.2 68 1.4 0.0 45 0.0
26.03.19 05:39:02 1021 6.2 68 1.4 0.0 45 0.0
26.03.19 05:34:02 1021 4.0 46 6.2 67 1.1 2.9 45 0.0
26.03.19 05:29:02 1021 4.1 46 6.2 66 0.7 0.0 22.5 0.0
26.03.19 05:24:01 1021 4.1 44 6.2 65 0.7 0.0 22.5 0.0
26.03.19 05:19:01 1021 4.1 43 6.2 65 1.1 1.8 135 0.0
26.03.19 05:14:01 1021 4.1 44 6.2 65 0.7 1.8 112.5 0.0
26.03.19 05:09:02 1021 4.2 43 6.1 65 0.7 1.8 112.5 0.0
26.03.19 05:04:02 1021 4.2 43 6.2 65 0.7 2.9 67.5 0.0
26.03.19 04:59:02 1021 4.1 43 6.2 64 0.0 0.0 90 0.0
26.03.19 04:54:02 4.2 43 6.2 64 0.0 0.0 90 0.0
26.03.19 04:49:02 1021 4.3 42 6.2 63 0.7 0.0 135 0.0
26.03.19 04:44:02 1021 4.2 43 6.2 64 0.7 3.6 292.5 0.0
26.03.19 04:39:02 4.2 43 6.2 63 0.7 3.6 292.5 0.0
26.03.19 04:34:02 1021 4.2 42 0.4 0.0 67.5 0.0
26.03.19 04:29:02 1021 4.1 42 6.2 61 1.4 1.4 90 0.0
26.03.19 04:24:02 1021 4.1 42 6.2 61 1.4 1.4 90 0.0
26.03.19 04:19:02 1021 3.9 42 6.2 62 1.8 2.9 112.5 0.0
26.03.19 04:14:02 1021 3.9 42 6.2 62 2.2 2.5 67.5 0.0
26.03.19 04:09:02 1021 4.0 42 6.1 61 2.2 2.5 67.5 0.0
26.03.19 04:04:02 1021 1.8 2.9 90 0.0
26.03.19 03:59:01 1021 4.1 42 6.1 61 2.9 1.8 90 0.0
26.03.19 03:53:02 1021 4.1 41 6.1 62 2.9 1.8 90 0.0
26.03.19 03:48:01 1021 4.2 41 6.1 63 3.2 5.0 22.5 0.0
26.03.19 03:43:01 1021 4.1 43 6.2 65 1.8 2.9 45 0.0
26.03.19 03:38:01 1021 4.0 44 6.1 66 1.8 2.9 45 0.0
26.03.19 03:33:01 1021 4.0 44 6.2 66 1.8 4.0 90 0.0
26.03.19 03:28:01 1021 4.1 44 6.2 66 0.4 4.3 45 0.0
26.03.19 03:23:02 1021 4.0 44 0.4 4.3 45 0.0
26.03.19 03:18:02 1021 4.0 44 6.1 68 0.4 1.8 45 0.0
26.03.19 03:13:02 1020 4.0 45 6.1 68 0.7 0.0 157.5 0.0
26.03.19 03:08:02 1020 4.1 46 6.1 69 0.7 0.0 157.5 0.0
26.03.19 03:03:01 1.1 0.0 45 0.0
26.03.19 02:58:01 1021 4.1 46 6.2 68 2.2 2.9 90 0.0
26.03.19 02:53:00 1021 4.1 45 6.3 67 2.2 2.9 90 0.0
26.03.19 02:48:00 1021 4.2 44 6.2 66 1.8 1.8 247.5 0.0
26.03.19 02:43:00 1020 4.2 43 6.2 66 0.4 2.9 90 0.0
26.03.19 02:38:01 1020 4.1 45 6.3 67 0.4 2.9 90 0.0
26.03.19 02:33:00 1020 4.1 44 6.2 67 0.4 2.2 67.5 0.0
26.03.19 02:28:00 1020 4.1 44 6.2 66 0.7 0.0 67.5 0.0
26.03.19 02:23:00 1020 4.2 44 6.3 67 0.7 0.0 67.5 0.0
26.03.19 02:18:00 1020 4.1 45 6.3 67 0.7 2.5 45 0.0
26.03.19 02:13:00 1020 4.1 45 6.3 67 1.4 2.2 67.5 0.0
26.03.19 02:08:00 1020 4.1 45 6.3 67 1.4 2.2 67.5 0.0
26.03.19 02:03:00 1020 4.2 44 6.3 68 1.4 2.2 292.5 0.0
26.03.19 01:58:00 1020 4.2 45 6.3 69 1.4 1.8 22.5 0.0
26.03.19 01:53:01 1021 4.2 45 6.3 69 1.4 1.8 22.5 0.0
26.03.19 01:48:00 1021 4.2 46 6.3 69 1.8 2.9 90 0.0
26.03.19 01:43:00 1020 4.1 46 6.3 69 1.4 1.8 45 0.0
26.03.19 01:38:00 1020 4.2 45 6.3 69 1.4 1.8 45 0.0
26.03.19 01:33:00 1020 4.3 45 6.3 69 1.4 2.9 45 0.0
26.03.19 01:28:00 1020 4.3 45 6.3 68 1.4 4.0 90 0.0
Index
© 2002-2012 Thomas Dreßler
Alle Rechte vorbehalten
letzte Scriptänderung 12.11.2012